This demonstration page uses our WeatherBlox Daily Observations layout. Learn more.

Left ArrowRight Arrow

Hourly Observations for November 10, 2015

Temp ( °F °C ) Dew Point ( °F °C ) Humidity (%) Winds ( mph kmh ) Pressure ( in mb ) Visibility ( mi km ) Precip ( " mm )
12:53 am 00:53 Cloudy with Light Snow 33 0.6 32 undefined 96 96 NNE 9 15 29.95 1014 8 13 0.02 0.51
1:22 am 01:22 Cloudy with Light Snow 34 1 32 undefined 93 93 NNE 13 20 30.00 1016 3 4 N/A
1:42 am 01:42 Cloudy with Light Snow 34 1 30 -1 87 87 N 10 17 30.00 1016 4 6 N/A
1:53 am 01:53 Cloudy with Light Snow 32 undefined 31 -0.6 96 96 N 13 20 29.96 1015 9 14 0.01 0.25
2:53 am 02:53 Cloudy with Light Wintry Mix 32 undefined 31 -0.6 96 96 NE 10 17 29.98 1015 10 16 N/A
3:21 am 03:21 Cloudy 32 undefined 31 -0.6 96 96 N 5 7 30.06 1018 10 16 N/A
3:49 am 03:49 Cloudy 32 undefined 30 -1 93 93 NNE 7 11 30.06 1018 10 16 N/A
3:53 am 03:53 Cloudy 32 undefined 30 -1.1 92 92 NNE 6 9 29.99 1016 10 16 N/A
4:00 am 04:00 Cloudy 32 undefined 30 -1 93 93 NNE 6 9 30.00 1016 10 16 N/A
4:50 am 04:50 Cloudy 32 undefined 30 -1 93 93 NNW 7 11 30.06 1018 10 16 N/A
4:53 am 04:53 Cloudy 32 undefined 30 -1.1 92 92 N 7 11 30.00 1016 10 16 N/A
5:49 am 05:49 Cloudy with Light Snow 30 -1 30 -1 100 100 NNW 5 7 30.06 1018 5 8 N/A
5:53 am 05:53 Cloudy with Light Snow 31 -0.6 30 -1.1 96 96 NNW 6 9 30.01 1016 5 8 N/A
6:18 am 06:18 Cloudy 30 -1 28 -2 93 93 N 8 13 30.06 1018 10 16 N/A
6:53 am 06:53 Cloudy 31 -0.6 28 -2.2 89 89 N 5 7 30.03 1017 10 16 N/A
7:53 am 07:53 Cloudy 32 undefined 28 -2.2 85 85 N N/A 30.05 1018 10 16 N/A
8:53 am 08:53 Cloudy with Light Snow 32 undefined 28 -2.2 85 85 WNW 3 6 30.06 1018 9 14 N/A
9:13 am 09:13 Cloudy with Light Snow 31 -0.6 30 -1.1 96 96 WNW 5 7 30.12 1020 3 4 N/A
9:35 am 09:35 Cloudy with Light Snow 31 -0.6 30 -1.1 96 96 W 6 9 30.12 1020 6 10 0.01 0.25
9:53 am 09:53 Cloudy 31 -0.6 30 -1.1 96 96 W 6 9 30.06 1018 10 16 0.01 0.25
10:25 am 10:25 Cloudy with Light Snow 32 undefined 31 -0.6 96 96 W 5 7 30.12 1020 9 14 N/A
10:36 am 10:36 Cloudy with Light Snow 32 undefined 31 -0.6 96 96 W 5 7 30.12 1020 3 4 N/A
10:51 am 10:51 Cloudy with Light Snow 32 undefined 30 -1 93 93 W 6 9 30.12 1020 3 4 N/A
10:53 am 10:53 Cloudy with Light Snow 32 undefined 31 -0.6 96 96 WNW 6 9 30.07 1018 3 4 N/A
10:58 am 10:58 Cloudy with Light Snow 32 undefined 30 -1 93 93 WNW 6 9 30.12 1020 2 3 N/A
11:04 am 11:04 Cloudy with Light Snow 32 undefined 30 -1 93 93 W 6 9 30.12 1020 2 3 N/A
11:21 am 11:21 Cloudy with Light Snow 32 undefined 30 -1.1 92 92 NW 3 6 30.12 1020 3 4 N/A
11:36 am 11:36 Cloudy with Light Snow 34 1 30 -1 87 87 N N/A 30.09 1019 3 4 N/A
11:48 am 11:48 Cloudy with Light Snow 34 1 30 -1 87 87 N N/A 30.09 1019 3 5 N/A
11:53 am 11:53 Cloudy with Light Snow 33 0.6 30 -1.1 89 89 N N/A 30.06 1018 4 6 0.01 0.25
12:10 pm 12:10 Cloudy with Light Snow 34 1 30 -1 87 87 N N/A 30.06 1018 5 8 N/A
12:53 pm 12:53 Cloudy 35 1.7 31 -0.6 85 85 N N/A 30.04 1017 10 16 N/A
1:53 pm 13:53 Cloudy 34 1.1 31 -0.6 89 89 WNW 8 13 30.04 1017 10 16 N/A
2:53 pm 14:53 Cloudy 34 1.1 31 -0.6 89 89 WSW 7 11 30.03 1017 10 16 N/A
3:53 pm 15:53 Cloudy 34 1.1 30 -1.1 85 85 WSW 10 17 30.03 1017 10 16 N/A
4:41 pm 16:41 Mostly Cloudy 33 0.6 30 -1.1 89 89 SSW 7 11 30.03 1017 10 16 N/A
4:53 pm 16:53 Cloudy 32 undefined 29 -1.7 88 88 SSW 6 9 30.03 1017 10 16 N/A
5:53 pm 17:53 Partly Cloudy 31 -0.6 28 -2.2 89 89 SW 5 7 30.02 1017 10 16 N/A
6:53 pm 18:53 Clear 29 -1.7 27 -2.8 92 92 S 5 7 30.02 1017 10 16 N/A
7:53 pm 19:53 Clear 28 -2.2 27 -2.8 96 96 N N/A 30.01 1016 10 16 N/A
8:53 pm 20:53 Clear 25 -3.9 24 -4.4 96 96 E 3 6 30.00 1016 10 16 N/A
9:53 pm 21:53 Clear 26 -3.3 22 -5.6 84 84 NE 5 7 29.98 1015 10 16 N/A
10:53 pm 22:53 Clear 23 -5 21 -6.1 92 92 E 3 6 29.97 1015 10 16 N/A
11:53 pm 23:53 Clear 22 -5.6 21 -6.1 96 96 N N/A 29.95 1014 10 16 N/A

Powered by AerisWeather